CZ-6A DEB, 61480

Orbit data source: Space-Track

CZ-6A DEB, 61480 is space debris in LEO originally from a launch on Tue, 06 Aug 2024 UTC launched from the Taiyaun Space Center, China (TSC). Debris objects in space refer to the collection of defunct objects orbiting the Earth. Examples of debris include non-operational satellites, rocket bodies, and fragments generated from explosions, collisions, or faulty payload assembly.

Loading next visibility...
Identifier
61480, 2024-140AAN
Orbit
LEO
Last TLE update
1 day ago
Origin
Manufacturer
SAST
Mission
Spacecraft
Bus & Motor
Unknown
Mass
Unknown
Launch date (UTC)
2024-08-06 (11 months ago)
Launch vehicle
Unknown
Launch site
Taiyaun Space Center, China (TSC)
Object type
Payload
Rocket body
Debris
Shape & HBR
Unknown
Radar Cross Section
Small (<0.1 m²)

Expand to show TLE details & history

TLE from 1 day ago
0 CZ-6A DEB
1 61480U 24140AAN 25189.37945828  .00015820  00000-0  14181-2 0  9994
2 61480  89.3821 326.1079 0106400 280.2812  78.6435 14.91400319 45299
Epoch: 2025-07-08T09:06Z
TLE epoch observation values (Epoch: 2025-07-08T09:06:25.195Z)
Latitude
-0°
Longitude
-97.07237°
Altitude
582.876 km
Speed
7.576 km/s
True Right ascension
21h 44m 25s
True Declination
0° 00' 00"
Sunlit
Object was in full shadow at epoch
Visualization orbit readout
Latitude
75.91132°
Longitude
-94.71877°
Altitude
676.109 km
Speed
7.488 km/s
Apparent Right ascension
15h 59m 01s
Apparent Declination
30° 43' 40"
Sunlit
Object is in daylight
Visualization observer readout
Local Sidereal Time
02:36:43
Azimuth
341.602° N
Elevation
-16.821°
Doppler factor
1
Orbital elements
Apogee altitude
664.561 km
Perigee altitude
516.27 km
Semi-major axis
6,968.553 km
Eccentricity
0.01064
Inclination
89.3821°
RAAN
326.1079°
Arg. of periapsis
280.2812°
True anomaly
Unknown
Mean anomaly
78.6435°
Eccentric anomaly
Unknown
Mean motion
3.73103 °/min
Orbital period
96.49 mins
BSTAR
0.0014181
Loading maneuver chart data...
Loading SW <> Apogee altitude chart data...
Loading historical data...
Loading historical data...
Loading historical data...
Loading historical data...
Loading historical data...
Loading historical data...
Loading historical data...

CZ-6A DEB Visibility forecast

Observer location: undefined°, undefined°

Span
Click to sort rows by Start time (UTC) header in descending order
Start Az.
Max El. time (UTC)
Max El. Az.
Max El.
End time (UTC)
End Az.
8 mins2025-07-09 21:06:04.813Z12.469° NNE2025-07-09 21:10:04.813Z85.963° E38.705°2025-07-09 21:14:04.813Z165.031° S
7 mins2025-07-10 09:33:04.813Z182.113° SSW2025-07-10 09:36:04.813Z334.044° NNW43.592°2025-07-10 09:40:04.813Z356.793° N
|